owner,sensor,date,latitude,longitude,vertical_datum,direction_of_sea_water_velocity,sea_water_speed,upward_sea_water_velocity,qcFlag 
TABS,ioos:station:TABS:X:1,2015-11-01T00:00:00Z,27.0660,-96.3383,2.0,204.5092578,14.46324998,-99999.0,'11111222,11111222,99999999' 
TABS,ioos:station:TABS:X:1,2015-11-01T00:30:00Z,27.0660,-96.3383,2.0,201.5362089,12.44914857,-99999.0,'11111222,11111222,99999999' 
TABS,ioos:station:TABS:X:1,2015-11-01T01:00:00Z,27.0660,-96.3383,2.0,203.8582201,17.89956703,-99999.0,'11111222,11111222,99999999' 
TABS,ioos:station:TABS:X:1,2015-11-01T01:30:00Z,27.0660,-96.3383,2.0,212.9069756,14.00748728,-99999.0,'11111222,11111222,99999999' 
TABS,ioos:station:TABS:X:1,2015-11-01T02:00:00Z,27.0660,-96.3383,2.0,213.0069938,13.03360656,-99999.0,'11111222,11111222,99999999' 
TABS,ioos:station:TABS:X:1,2015-11-01T02:30:00Z,27.0660,-96.3383,2.0,217.4382736,8.060397013,-99999.0,'11133222,11111222,99999999' 
TABS,ioos:station:TABS:X:1,2015-11-01T03:00:00Z,27.0660,-96.3383,2.0,213.0198294,6.404451577,-99999.0,'11133222,11111222,99999999' 
TABS,ioos:station:TABS:X:1,2015-11-01T03:30:00Z,27.0660,-96.3383,2.0,225.6380495,10.15468365,-99999.0,'11111222,11111222,99999999' 
TABS,ioos:station:TABS:X:1,2015-11-01T04:00:00Z,27.0660,-96.3383,2.0,241.679633,10.07597638,-99999.0,'11111222,11111222,99999999' 
TABS,ioos:station:TABS:X:1,2015-11-01T04:30:00Z,27.0660,-96.3383,2.0,245.0767268,9.207437211,-99999.0,'11133222,11111222,99999999' 
TABS,ioos:station:TABS:X:1,2015-11-01T05:00:00Z,27.0660,-96.3383,2.0,251.8194606,11.37798752,-99999.0,'11111222,11111222,99999999' 
TABS,ioos:station:TABS:X:1,2015-11-01T05:30:00Z,27.0660,-96.3383,2.0,276.2796981,11.42856509,-99999.0,'11111222,11111222,99999999' 
TABS,ioos:station:TABS:X:1,2015-11-01T06:00:00Z,27.0660,-96.3383,2.0,271.3252459,10.81289046,-99999.0,'11111222,11111222,99999999' 
TABS,ioos:station:TABS:X:1,2015-11-01T06:30:00Z,27.0660,-96.3383,2.0,283.8980047,13.03147728,-99999.0,'11111222,11111222,99999999' 
TABS,ioos:station:TABS:X:1,2015-11-01T07:00:00Z,27.0660,-96.3383,2.0,276.4336461,14.27991947,-99999.0,'11111222,11111222,99999999' 
TABS,ioos:station:TABS:X:1,2015-11-01T07:30:00Z,27.0660,-96.3383,2.0,284.923189,12.85350147,-99999.0,'11111222,11111222,99999999' 
TABS,ioos:station:TABS:X:1,2015-11-01T08:00:00Z,27.0660,-96.3383,2.0,288.2622285,15.70078024,-99999.0,'11111222,11111222,99999999' 
TABS,ioos:station:TABS:X:1,2015-11-01T08:30:00Z,27.0660,-96.3383,2.0,286.3946515,13.67603744,-99999.0,'11111222,11111222,99999999' 
TABS,ioos:station:TABS:X:1,2015-11-01T09:00:00Z,27.0660,-96.3383,2.0,290.0564688,9.389398277,-99999.0,'11133222,11111222,99999999' 
TABS,ioos:station:TABS:X:1,2015-11-01T09:30:00Z,27.0660,-96.3383,2.0,296.2854661,13.72962126,-99999.0,'11111222,11111222,99999999' 
TABS,ioos:station:TABS:X:1,2015-11-01T10:00:00Z,27.0660,-96.3383,2.0,295.5986182,16.43296687,-99999.0,'11111222,11111222,99999999' 
TABS,ioos:station:TABS:X:1,2015-11-01T10:30:00Z,27.0660,-96.3383,2.0,305.0856619,18.11078408,-99999.0,'11111222,11111222,99999999' 
TABS,ioos:station:TABS:X:1,2015-11-01T11:00:00Z,27.0660,-96.3383,2.0,314.0278936,19.58260708,-99999.0,'11111222,11111222,99999999' 
TABS,ioos:station:TABS:X:1,2015-11-01T11:30:00Z,27.0660,-96.3383,2.0,327.2334813,16.3519112,-99999.0,'11111222,11111222,99999999' 
TABS,ioos:station:TABS:X:1,2015-11-01T12:00:00Z,27.0660,-96.3383,2.0,333.0200428,13.57776123,-99999.0,'11111222,11111222,99999999' 
TABS,ioos:station:TABS:X:1,2015-11-01T12:30:00Z,27.0660,-96.3383,2.0,341.920565,14.79025693,-99999.0,'11111222,11111222,99999999' 
TABS,ioos:station:TABS:X:1,2015-11-01T13:00:00Z,27.0660,-96.3383,2.0,342.1050862,11.74838287,-99999.0,'11111222,11111222,99999999' 
TABS,ioos:station:TABS:X:1,2015-11-01T13:30:00Z,27.0660,-96.3383,2.0,346.3732475,12.56366587,-99999.0,'11111222,11111222,99999999' 
TABS,ioos:station:TABS:X:1,2015-11-01T14:00:00Z,27.0660,-96.3383,2.0,356.4320223,13.17554173,-99999.0,'11111222,11111222,99999999' 
TABS,ioos:station:TABS:X:1,2015-11-01T14:30:00Z,27.0660,-96.3383,2.0,352.9342784,12.03137565,-99999.0,'11111222,11111222,99999999' 
TABS,ioos:station:TABS:X:1,2015-11-01T15:00:00Z,27.0660,-96.3383,2.0,354.4000819,13.93651678,-99999.0,'11111222,11111222,99999999' 
TABS,ioos:station:TABS:X:1,2015-11-01T15:30:00Z,27.0660,-96.3383,2.0,345.1195559,13.82360662,-99999.0,'11111222,11111222,99999999' 
TABS,ioos:station:TABS:X:1,2015-11-01T16:00:00Z,27.0660,-96.3383,2.0,356.2127723,15.7443863,-99999.0,'11111222,11111222,99999999' 
TABS,ioos:station:TABS:X:1,2015-11-01T16:30:00Z,27.0660,-96.3383,2.0,14.96929431,13.70507935,-99999.0,'11111222,11111222,99999999' 
TABS,ioos:station:TABS:X:1,2015-11-01T17:00:00Z,27.0660,-96.3383,2.0,14.75275844,9.699757729,-99999.0,'11133222,11111222,99999999' 
TABS,ioos:station:TABS:X:1,2015-11-01T17:30:00Z,27.0660,-96.3383,2.0,29.03512706,8.509435939,-99999.0,'11133222,11111222,99999999' 
TABS,ioos:station:TABS:X:1,2015-11-01T18:00:00Z,27.0660,-96.3383,2.0,19.01254434,5.64811473,-99999.0,'11133222,11111222,99999999' 
TABS,ioos:station:TABS:X:1,2015-11-01T18:30:00Z,27.0660,-96.3383,2.0,39.3328328,3.72343927,-99999.0,'11133222,11111222,99999999' 
TABS,ioos:station:TABS:X:1,2015-11-01T19:00:00Z,27.0660,-96.3383,2.0,4.301256461,7.200277772,-99999.0,'11133222,11111222,99999999' 
TABS,ioos:station:TABS:X:1,2015-11-01T19:30:00Z,27.0660,-96.3383,2.0,33.95919087,2.953811098,-99999.0,'11133222,11111222,99999999' 
TABS,ioos:station:TABS:X:1,2015-11-01T20:00:00Z,27.0660,-96.3383,2.0,15.64242034,4.153841595,-99999.0,'11133222,11111222,99999999' 
TABS,ioos:station:TABS:X:1,2015-11-01T20:30:00Z,27.0660,-96.3383,2.0,24.29725028,6.780597319,-99999.0,'11133222,11111222,99999999' 
TABS,ioos:station:TABS:X:1,2015-11-01T21:00:00Z,27.0660,-96.3383,2.0,52.38446151,4.456377453,-99999.0,'11133222,11111222,99999999' 
TABS,ioos:station:TABS:X:1,2015-11-01T21:30:00Z,27.0660,-96.3383,2.0,18.60683088,3.165454154,-99999.0,'11133222,11111222,99999999' 
TABS,ioos:station:TABS:X:1,2015-11-01T22:00:00Z,27.0660,-96.3383,2.0,32.29811243,2.283265206,-99999.0,'11133222,11111222,99999999' 
TABS,ioos:station:TABS:X:1,2015-11-01T22:30:00Z,27.0660,-96.3383,2.0,9.775408406,2.709335712,-99999.0,'11133222,11111222,99999999' 
TABS,ioos:station:TABS:X:1,2015-11-01T23:00:00Z,27.0660,-96.3383,2.0,341.6055687,4.499922222,-99999.0,'11133222,11111222,99999999' 
TABS,ioos:station:TABS:X:1,2015-11-02T00:00:00Z,27.0660,-96.3383,2.0,329.6346888,7.556639465,-99999.0,'11133222,11111222,99999999' 
TABS,ioos:station:TABS:X:1,2015-11-02T00:30:00Z,27.0660,-96.3383,2.0,351.0518079,8.614853452,-99999.0,'11133222,11111222,99999999' 
TABS,ioos:station:TABS:X:1,2015-11-02T01:00:00Z,27.0660,-96.3383,2.0,349.9606939,9.464930005,-99999.0,'11133222,11111222,99999999' 
TABS,ioos:station:TABS:X:1,2015-11-02T01:30:00Z,27.0660,-96.3383,2.0,331.5573483,10.37198149,-99999.0,'11111222,11111222,99999999' 
TABS,ioos:station:TABS:X:1,2015-11-02T02:00:00Z,27.0660,-96.3383,2.0,358.98981,5.670881766,-99999.0,'11133222,11111222,99999999' 
TABS,ioos:station:TABS:X:1,2015-11-02T02:30:00Z,27.0660,-96.3383,2.0,325.4177887,9.971945648,-99999.0,'11133222,11111222,99999999' 
TABS,ioos:station:TABS:X:1,2015-11-02T03:00:00Z,27.0660,-96.3383,2.0,339.7921784,6.745205705,-99999.0,'11133222,11111222,99999999' 
TABS,ioos:station:TABS:X:1,2015-11-02T03:30:00Z,27.0660,-96.3383,2.0,342.4431398,10.93960237,-99999.0,'11111222,11111222,99999999' 
TABS,ioos:station:TABS:X:1,2015-11-02T04:00:00Z,27.0660,-96.3383,2.0,350.3040104,9.262316125,-99999.0,'11133222,11111222,99999999' 
TABS,ioos:station:TABS:X:1,2015-11-02T04:30:00Z,27.0660,-96.3383,2.0,351.3064447,11.64378375,-99999.0,'11111222,11111222,99999999' 
TABS,ioos:station:TABS:X:1,2015-11-02T05:00:00Z,27.0660,-96.3383,2.0,337.1458068,12.02394694,-99999.0,'11111222,11111222,99999999' 
TABS,ioos:station:TABS:X:1,2015-11-02T05:30:00Z,27.0660,-96.3383,2.0,0.436906618,13.12038109,-99999.0,'11111222,11111222,99999999' 
TABS,ioos:station:TABS:X:1,2015-11-02T06:00:00Z,27.0660,-96.3383,2.0,351.3250999,9.81225764,-99999.0,'11133222,11111222,99999999' 
TABS,ioos:station:TABS:X:1,2015-11-02T06:30:00Z,27.0660,-96.3383,2.0,328.8491332,8.389755658,-99999.0,'11133222,11111222,99999999' 
TABS,ioos:station:TABS:X:1,2015-11-02T07:00:00Z,27.0660,-96.3383,2.0,336.4982877,13.39081775,-99999.0,'11111222,11111222,99999999' 
TABS,ioos:station:TABS:X:1,2015-11-02T07:30:00Z,27.0660,-96.3383,2.0,331.1018849,13.18136943,-99999.0,'11111222,11111222,99999999' 
TABS,ioos:station:TABS:X:1,2015-11-02T08:00:00Z,27.0660,-96.3383,2.0,332.2644654,12.91375236,-99999.0,'11111222,11111222,99999999' 
TABS,ioos:station:TABS:X:1,2015-11-02T08:30:00Z,27.0660,-96.3383,2.0,330.2473651,17.69231472,-99999.0,'11111222,11111222,99999999' 
TABS,ioos:station:TABS:X:1,2015-11-02T09:00:00Z,27.0660,-96.3383,2.0,330.4839402,15.54787767,-99999.0,'11111222,11111222,99999999' 
TABS,ioos:station:TABS:X:1,2015-11-02T09:30:00Z,27.0660,-96.3383,2.0,331.9960003,19.76413165,-99999.0,'11111222,11111222,99999999' 
TABS,ioos:station:TABS:X:1,2015-11-02T10:00:00Z,27.0660,-96.3383,2.0,336.7899549,19.25871491,-99999.0,'11111222,11111222,99999999' 
TABS,ioos:station:TABS:X:1,2015-11-02T10:30:00Z,27.0660,-96.3383,2.0,341.3637023,22.46812186,-99999.0,'11111222,11111222,99999999' 
TABS,ioos:station:TABS:X:1,2015-11-02T11:00:00Z,27.0660,-96.3383,2.0,344.524682,22.11167339,-99999.0,'11111222,11111222,99999999' 
TABS,ioos:station:TABS:X:1,2015-11-02T11:30:00Z,27.0660,-96.3383,2.0,348.6739576,20.62161245,-99999.0,'11111222,11111222,99999999' 
TABS,ioos:station:TABS:X:1,2015-11-02T12:00:00Z,27.0660,-96.3383,2.0,348.2143501,21.2479552,-99999.0,'11111222,11111222,99999999' 
TABS,ioos:station:TABS:X:1,2015-11-02T12:30:00Z,27.0660,-96.3383,2.0,352.3931874,21.37814304,-99999.0,'11111222,11111222,99999999' 
TABS,ioos:station:TABS:X:1,2015-11-02T13:00:00Z,27.0660,-96.3383,2.0,351.4867193,21.34520321,-99999.0,'11111222,11111222,99999999' 
TABS,ioos:station:TABS:X:1,2015-11-02T13:30:00Z,27.0660,-96.3383,2.0,354.5394179,21.22633506,-99999.0,'11111222,11111222,99999999' 
TABS,ioos:station:TABS:X:1,2015-11-02T14:00:00Z,27.0660,-96.3383,2.0,357.3868703,19.30007254,-99999.0,'11111222,11111222,99999999' 
TABS,ioos:station:TABS:X:1,2015-11-02T14:30:00Z,27.0660,-96.3383,2.0,0.146062444,23.57007637,-99999.0,'11111222,11111222,99999999' 
TABS,ioos:station:TABS:X:1,2015-11-02T15:00:00Z,27.0660,-96.3383,2.0,355.552836,23.47067106,-99999.0,'11111222,11111222,99999999' 
TABS,ioos:station:TABS:X:1,2015-11-02T15:30:00Z,27.0660,-96.3383,2.0,357.2205557,22.47644545,-99999.0,'11111222,11111222,99999999' 
TABS,ioos:station:TABS:X:1,2015-11-02T16:00:00Z,27.0660,-96.3383,2.0,1.69736268,21.6094794,-99999.0,'11111222,11111222,99999999' 
TABS,ioos:station:TABS:X:1,2015-11-02T16:30:00Z,27.0660,-96.3383,2.0,4.602321166,19.442685,-99999.0,'11111222,11111222,99999999' 
TABS,ioos:station:TABS:X:1,2015-11-02T17:00:00Z,27.0660,-96.3383,2.0,4.385980726,20.39973529,-99999.0,'11111222,11111222,99999999' 
TABS,ioos:station:TABS:X:1,2015-11-02T17:30:00Z,27.0660,-96.3383,2.0,8.818461662,27.78847243,-99999.0,'11111222,11111222,99999999' 
TABS,ioos:station:TABS:X:1,2015-11-02T18:00:00Z,27.0660,-96.3383,2.0,6.988267961,26.46660726,-99999.0,'11111222,11111222,99999999' 
TABS,ioos:station:TABS:X:1,2015-11-02T18:30:00Z,27.0660,-96.3383,2.0,4.516037522,24.38570278,-99999.0,'11111222,11111222,99999999' 
TABS,ioos:station:TABS:X:1,2015-11-02T19:00:00Z,27.0660,-96.3383,2.0,9.082408419,25.27690052,-99999.0,'11111222,11111222,99999999' 
TABS,ioos:station:TABS:X:1,2015-11-02T19:30:00Z,27.0660,-96.3383,2.0,17.44096362,24.42278444,-99999.0,'11111222,11111222,99999999' 
TABS,ioos:station:TABS:X:1,2015-11-02T20:00:00Z,27.0660,-96.3383,2.0,18.45265387,20.6623232,-99999.0,'11111222,11111222,99999999' 
TABS,ioos:station:TABS:X:1,2015-11-02T20:30:00Z,27.0660,-96.3383,2.0,21.67322535,21.55371198,-99999.0,'11111222,11111222,99999999' 
TABS,ioos:station:TABS:X:1,2015-11-02T21:00:00Z,27.0660,-96.3383,2.0,21.84902095,20.17951932,-99999.0,'11111222,11111222,99999999' 
TABS,ioos:station:TABS:X:1,2015-11-02T21:30:00Z,27.0660,-96.3383,2.0,29.73394986,19.25515256,-99999.0,'11111222,11111222,99999999' 
TABS,ioos:station:TABS:X:1,2015-11-02T22:00:00Z,27.0660,-96.3383,2.0,19.65792938,19.55997955,-99999.0,'11111222,11111222,99999999' 
TABS,ioos:station:TABS:X:1,2015-11-02T22:30:00Z,27.0660,-96.3383,2.0,0.0,0.0,-99999.0,'11133222,11111222,99999999' 
TABS,ioos:station:TABS:X:1,2015-11-02T23:00:00Z,27.0660,-96.3383,2.0,12.95842111,22.43123938,-99999.0,'11111222,11111222,99999999' 
TABS,ioos:station:TABS:X:1,2015-11-02T23:30:00Z,27.0660,-96.3383,2.0,8.062975706,20.46227016,-99999.0,'11111222,11111222,99999999' 
TABS,ioos:station:TABS:X:1,2015-11-03T00:00:00Z,27.0660,-96.3383,2.0,0.0,0.0,-99999.0,'11133222,11111222,99999999' 
TABS,ioos:station:TABS:X:1,2015-11-03T00:30:00Z,27.0660,-96.3383,2.0,3.95548717,25.37042767,-99999.0,'11111222,11111222,99999999' 
TABS,ioos:station:TABS:X:1,2015-11-03T01:00:00Z,27.0660,-96.3383,2.0,16.51719993,28.91309046,-99999.0,'11111222,11111222,99999999' 
TABS,ioos:station:TABS:X:1,2015-11-03T01:30:00Z,27.0660,-96.3383,2.0,12.85041969,27.06792382,-99999.0,'11111222,11111222,99999999' 
TABS,ioos:station:TABS:X:1,2015-11-03T02:00:00Z,27.0660,-96.3383,2.0,12.21769436,25.7532794,-99999.0,'11111222,11111222,99999999' 
TABS,ioos:station:TABS:X:1,2015-11-03T02:30:00Z,27.0660,-96.3383,2.0,0.0,0.0,-99999.0,'11133222,11111222,99999999' 
TABS,ioos:station:TABS:X:1,2015-11-03T03:00:00Z,27.0660,-96.3383,2.0,0.0,0.0,-99999.0,'11133222,11111222,99999999' 
TABS,ioos:station:TABS:X:1,2015-11-03T03:30:00Z,27.0660,-96.3383,2.0,12.0170575,22.09416439,-99999.0,'11111222,11111222,99999999' 
TABS,ioos:station:TABS:X:1,2015-11-03T04:00:00Z,27.0660,-96.3383,2.0,0.0,0.0,-99999.0,'11133222,11111222,99999999' 
TABS,ioos:station:TABS:X:1,2015-11-03T04:30:00Z,27.0660,-96.3383,2.0,7.835717242,19.80490848,-99999.0,'11111222,11111222,99999999' 
TABS,ioos:station:TABS:X:1,2015-11-03T05:00:00Z,27.0660,-96.3383,2.0,8.746352269,16.04659465,-99999.0,'11111222,11111222,99999999' 
TABS,ioos:station:TABS:X:1,2015-11-03T05:30:00Z,27.0660,-96.3383,2.0,1.980101158,15.91950376,-99999.0,'11111222,11111222,99999999' 
TABS,ioos:station:TABS:X:1,2015-11-03T06:00:00Z,27.0660,-96.3383,2.0,3.144215907,13.31003381,-99999.0,'11111222,11111222,99999999' 
TABS,ioos:station:TABS:X:1,2015-11-03T06:30:00Z,27.0660,-96.3383,2.0,0.39809049,12.9603125,-99999.0,'11111222,11111222,99999999' 
TABS,ioos:station:TABS:X:1,2015-11-03T07:00:00Z,27.0660,-96.3383,2.0,1.426733255,12.85398382,-99999.0,'11111222,11111222,99999999' 
TABS,ioos:station:TABS:X:1,2015-11-03T07:30:00Z,27.0660,-96.3383,2.0,3.486424049,13.48495458,-99999.0,'11111222,11111222,99999999' 
TABS,ioos:station:TABS:X:1,2015-11-03T08:00:00Z,27.0660,-96.3383,2.0,9.418678612,12.89381635,-99999.0,'11111222,11111222,99999999' 
TABS,ioos:station:TABS:X:1,2015-11-03T08:30:00Z,27.0660,-96.3383,2.0,21.80156896,14.10913179,-99999.0,'11111222,11111222,99999999' 
TABS,ioos:station:TABS:X:1,2015-11-03T09:00:00Z,27.0660,-96.3383,2.0,26.7026355,16.77950238,-99999.0,'11111222,11111222,99999999' 
TABS,ioos:station:TABS:X:1,2015-11-03T09:30:00Z,27.0660,-96.3383,2.0,24.89826692,19.52466389,-99999.0,'11111222,11111222,99999999' 
TABS,ioos:station:TABS:X:1,2015-11-03T10:00:00Z,27.0660,-96.3383,2.0,29.04347793,19.75401225,-99999.0,'11111222,11111222,99999999' 
TABS,ioos:station:TABS:X:1,2015-11-03T10:30:00Z,27.0660,-96.3383,2.0,24.55207035,17.56844899,-99999.0,'11111222,11111222,99999999' 
TABS,ioos:station:TABS:X:1,2015-11-03T11:00:00Z,27.0660,-96.3383,2.0,29.91459816,16.7633678,-99999.0,'11111222,11111222,99999999' 
TABS,ioos:station:TABS:X:1,2015-11-03T11:30:00Z,27.0660,-96.3383,2.0,27.6508839,20.29819696,-99999.0,'11111222,11111222,99999999' 
TABS,ioos:station:TABS:X:1,2015-11-03T12:00:00Z,27.0660,-96.3383,2.0,28.36610975,19.63790467,-99999.0,'11111222,11111222,99999999' 
TABS,ioos:station:TABS:X:1,2015-11-03T12:30:00Z,27.0660,-96.3383,2.0,28.76648457,22.5875386,-99999.0,'11111222,11111222,99999999' 
TABS,ioos:station:TABS:X:1,2015-11-03T13:00:00Z,27.0660,-96.3383,2.0,25.96972923,21.94595635,-99999.0,'11111222,11111222,99999999' 
TABS,ioos:station:TABS:X:1,2015-11-03T13:30:00Z,27.0660,-96.3383,2.0,26.79392343,24.64613763,-99999.0,'11111222,11111222,99999999' 
TABS,ioos:station:TABS:X:1,2015-11-03T14:00:00Z,27.0660,-96.3383,2.0,30.28488686,21.85216923,-99999.0,'11111222,11111222,99999999' 
TABS,ioos:station:TABS:X:1,2015-11-03T14:30:00Z,27.0660,-96.3383,2.0,27.18125798,23.70816315,-99999.0,'11111222,11111222,99999999' 
TABS,ioos:station:TABS:X:1,2015-11-03T15:00:00Z,27.0660,-96.3383,2.0,25.2025935,23.13195625,-99999.0,'11111222,11111222,99999999' 
TABS,ioos:station:TABS:X:1,2015-11-03T15:30:00Z,27.0660,-96.3383,2.0,28.39503398,21.84858119,-99999.0,'11111222,11111222,99999999' 
TABS,ioos:station:TABS:X:1,2015-11-03T16:00:00Z,27.0660,-96.3383,2.0,25.81287569,22.13898146,-99999.0,'11111222,11111222,99999999' 
TABS,ioos:station:TABS:X:1,2015-11-03T16:30:00Z,27.0660,-96.3383,2.0,29.91604467,24.10129665,-99999.0,'11111222,11111222,99999999' 
TABS,ioos:station:TABS:X:1,2015-11-03T17:00:00Z,27.0660,-96.3383,2.0,26.66567892,22.95103701,-99999.0,'11111222,11111222,99999999' 
TABS,ioos:station:TABS:X:1,2015-11-03T17:30:00Z,27.0660,-96.3383,2.0,27.59240352,25.19559088,-99999.0,'11111222,11111222,99999999' 
TABS,ioos:station:TABS:X:1,2015-11-03T18:00:00Z,27.0660,-96.3383,2.0,26.6814177,26.45721074,-99999.0,'11111222,11111222,99999999' 
TABS,ioos:station:TABS:X:1,2015-11-03T18:30:00Z,27.0660,-96.3383,2.0,22.49955245,34.75546144,-99999.0,'11111222,11111222,99999999' 
TABS,ioos:station:TABS:X:1,2015-11-03T19:00:00Z,27.0660,-96.3383,2.0,15.43428673,54.18403178,-99999.0,'11111222,11111222,99999999' 
TABS,ioos:station:TABS:X:1,2015-11-03T19:30:00Z,27.0660,-96.3383,2.0,19.56296813,54.62311782,-99999.0,'11111222,11111222,99999999' 
TABS,ioos:station:TABS:X:1,2015-11-03T20:00:00Z,27.0660,-96.3383,2.0,19.18353175,53.98784771,-99999.0,'11111222,11111222,99999999' 
TABS,ioos:station:TABS:X:1,2015-11-03T20:30:00Z,27.0660,-96.3383,2.0,18.61840296,49.42665273,-99999.0,'11111222,11111222,99999999' 
TABS,ioos:station:TABS:X:1,2015-11-03T21:00:00Z,27.0660,-96.3383,2.0,19.1527694,45.44549483,-99999.0,'11111222,11111222,99999999' 
TABS,ioos:station:TABS:X:1,2015-11-03T21:30:00Z,27.0660,-96.3383,2.0,20.34548783,39.46186007,-99999.0,'11111222,11111222,99999999' 
TABS,ioos:station:TABS:X:1,2015-11-03T22:00:00Z,27.0660,-96.3383,2.0,20.43070705,36.86922023,-99999.0,'11111222,11111222,99999999' 
TABS,ioos:station:TABS:X:1,2015-11-03T22:30:00Z,27.0660,-96.3383,2.0,24.63469746,35.57814638,-99999.0,'11111222,11111222,99999999' 
TABS,ioos:station:TABS:X:1,2015-11-03T23:00:00Z,27.0660,-96.3383,2.0,33.0380818,42.64533972,-99999.0,'11111222,11111222,99999999' 
TABS,ioos:station:TABS:X:1,2015-11-03T23:30:00Z,27.0660,-96.3383,2.0,36.95393691,43.69804687,-99999.0,'11111222,11111222,99999999' 
TABS,ioos:station:TABS:X:1,2015-11-04T00:00:00Z,27.0660,-96.3383,2.0,37.65449428,40.31777896,-99999.0,'11111222,11111222,99999999' 
TABS,ioos:station:TABS:X:1,2015-11-04T00:30:00Z,27.0660,-96.3383,2.0,35.28881204,37.18215836,-99999.0,'11111222,11111222,99999999' 
TABS,ioos:station:TABS:X:1,2015-11-04T01:00:00Z,27.0660,-96.3383,2.0,36.48440233,35.95681438,-99999.0,'11111222,11111222,99999999' 
TABS,ioos:station:TABS:X:1,2015-11-04T01:30:00Z,27.0660,-96.3383,2.0,36.01350628,36.12403632,-99999.0,'11111222,11111222,99999999' 
TABS,ioos:station:TABS:X:1,2015-11-04T02:00:00Z,27.0660,-96.3383,2.0,36.92078588,33.86001329,-99999.0,'11111222,11111222,99999999' 
TABS,ioos:station:TABS:X:1,2015-11-04T02:30:00Z,27.0660,-96.3383,2.0,34.53123157,31.36612823,-99999.0,'11111222,11111222,99999999' 
TABS,ioos:station:TABS:X:1,2015-11-04T03:00:00Z,27.0660,-96.3383,2.0,34.85620561,31.07519268,-99999.0,'11111222,11111222,99999999' 
TABS,ioos:station:TABS:X:1,2015-11-04T03:30:00Z,27.0660,-96.3383,2.0,35.40079302,27.22294988,-99999.0,'11111222,11111222,99999999' 
TABS,ioos:station:TABS:X:1,2015-11-04T04:00:00Z,27.0660,-96.3383,2.0,30.48616843,26.94507933,-99999.0,'11111222,11111222,99999999' 
TABS,ioos:station:TABS:X:1,2015-11-04T04:30:00Z,27.0660,-96.3383,2.0,31.78193711,23.90419419,-99999.0,'11111222,11111222,99999999' 
TABS,ioos:station:TABS:X:1,2015-11-04T05:00:00Z,27.0660,-96.3383,2.0,35.7458324,22.73237559,-99999.0,'11111222,11111222,99999999' 
TABS,ioos:station:TABS:X:1,2015-11-04T05:30:00Z,27.0660,-96.3383,2.0,23.0129906,21.8705144,-99999.0,'11111222,11111222,99999999' 
TABS,ioos:station:TABS:X:1,2015-11-04T06:00:00Z,27.0660,-96.3383,2.0,19.19727805,19.49400421,-99999.0,'11111222,11111222,99999999' 
TABS,ioos:station:TABS:X:1,2015-11-04T06:30:00Z,27.0660,-96.3383,2.0,21.5038546,21.44253017,-99999.0,'11111222,11111222,99999999' 
TABS,ioos:station:TABS:X:1,2015-11-04T07:00:00Z,27.0660,-96.3383,2.0,21.47695122,22.2875122,-99999.0,'11111222,11111222,99999999' 
TABS,ioos:station:TABS:X:1,2015-11-04T07:30:00Z,27.0660,-96.3383,2.0,22.68323171,18.8261653,-99999.0,'11111222,11111222,99999999' 
TABS,ioos:station:TABS:X:1,2015-11-04T08:00:00Z,27.0660,-96.3383,2.0,27.60094016,19.79243542,-99999.0,'11111222,11111222,99999999' 
TABS,ioos:station:TABS:X:1,2015-11-04T08:30:00Z,27.0660,-96.3383,2.0,19.79774326,16.62246973,-99999.0,'11111222,11111222,99999999' 
TABS,ioos:station:TABS:X:1,2015-11-04T09:00:00Z,27.0660,-96.3383,2.0,20.22660303,17.90408054,-99999.0,'11111222,11111222,99999999' 
TABS,ioos:station:TABS:X:1,2015-11-04T09:30:00Z,27.0660,-96.3383,2.0,17.60266491,17.19511849,-99999.0,'11111222,11111222,99999999' 
TABS,ioos:station:TABS:X:1,2015-11-04T10:00:00Z,27.0660,-96.3383,2.0,15.24200292,18.90498611,-99999.0,'11111222,11111222,99999999' 
TABS,ioos:station:TABS:X:1,2015-11-04T10:30:00Z,27.0660,-96.3383,2.0,14.32445968,22.67494212,-99999.0,'11111222,11111222,99999999' 
TABS,ioos:station:TABS:X:1,2015-11-04T11:00:00Z,27.0660,-96.3383,2.0,12.78965221,25.74882716,-99999.0,'11111222,11111222,99999999' 
TABS,ioos:station:TABS:X:1,2015-11-04T11:30:00Z,27.0660,-96.3383,2.0,17.58020702,29.03610339,-99999.0,'11111222,11111222,99999999' 
TABS,ioos:station:TABS:X:1,2015-11-04T12:00:00Z,27.0660,-96.3383,2.0,10.87124461,28.42002287,-99999.0,'11111222,11111222,99999999' 
TABS,ioos:station:TABS:X:1,2015-11-04T12:30:00Z,27.0660,-96.3383,2.0,22.91796587,28.40192247,-99999.0,'11111222,11111222,99999999' 
TABS,ioos:station:TABS:X:1,2015-11-04T13:00:00Z,27.0660,-96.3383,2.0,10.98925729,25.91519246,-99999.0,'11111222,11111222,99999999' 
TABS,ioos:station:TABS:X:1,2015-11-04T13:30:00Z,27.0660,-96.3383,2.0,21.54336782,25.13597621,-99999.0,'11111222,11111222,99999999' 
TABS,ioos:station:TABS:X:1,2015-11-04T14:00:00Z,27.0660,-96.3383,2.0,20.78502287,26.37660327,-99999.0,'11111222,11111222,99999999' 
TABS,ioos:station:TABS:X:1,2015-11-04T14:30:00Z,27.0660,-96.3383,2.0,14.66856513,26.37978014,-99999.0,'11111222,11111222,99999999' 
TABS,ioos:station:TABS:X:1,2015-11-04T15:00:00Z,27.0660,-96.3383,2.0,16.57186159,25.38437512,-99999.0,'11111222,11111222,99999999' 
TABS,ioos:station:TABS:X:1,2015-11-04T15:30:00Z,27.0660,-96.3383,2.0,22.31363161,26.18037433,-99999.0,'11111222,11111222,99999999' 
TABS,ioos:station:TABS:X:1,2015-11-04T16:00:00Z,27.0660,-96.3383,2.0,18.52452234,26.34496726,-99999.0,'11111222,11111222,99999999' 
TABS,ioos:station:TABS:X:1,2015-11-04T16:30:00Z,27.0660,-96.3383,2.0,17.39797446,24.98292417,-99999.0,'11111222,11111222,99999999' 
TABS,ioos:station:TABS:X:1,2015-11-04T17:00:00Z,27.0660,-96.3383,2.0,22.29418337,26.78197155,-99999.0,'11111222,11111222,99999999' 
TABS,ioos:station:TABS:X:1,2015-11-04T17:30:00Z,27.0660,-96.3383,2.0,14.8655332,23.46535318,-99999.0,'11111222,11111222,99999999' 
TABS,ioos:station:TABS:X:1,2015-11-04T18:00:00Z,27.0660,-96.3383,2.0,18.20661294,24.58057973,-99999.0,'11111222,11111222,99999999' 
TABS,ioos:station:TABS:X:1,2015-11-04T18:30:00Z,27.0660,-96.3383,2.0,11.68346234,28.59237836,-99999.0,'11111222,11111222,99999999' 